Forside
METAR-TAF:

METAR-TAF

Lufthavne :

Merrill Municipal Airport

Merrill, Wisconsin, USA

Breddekreds: 45-11N, længdekreds: 089-42W, højde: 401 m

Aktuelle vejr

Denne rapport blev lavet for 21 minutter siden, kl. 17:35 UTC
Vind 5 kt fra vestnordvest
Temperatur 22°C
Fugtighed 65%
Tryk 1019 hPa
Sigt: 11.3 km
skyfri

METAR: KRRL 031735Z AUTO 29005KT 7SM CLR 22/15 A3009 RMK AO2 T02210152 TSNO

Tid: 12:56 (17:56 UTC)


TAF: fraværende

Vejrobservationer og prognoser fra mere end 4000 lufthavne (METAR og TAF).

De gule og røde prikker repræsenterer de meteorologiske stationer.

Flyt musen over at se navnet på stationen.

Så klik over at se vejr observationer og prognoser.

At skifte det kort: Klik på de grønne knapper med et sort kors for at zoome ind; på den grønne knap med en bindestreg for at zoome ud; eller på de grønne pile for tilstødende kort.


METAR-TAF: